Weather History for Erie, CO

Change the Weather History Date:

Saturday, December 28, 2013

  Actual Average (KBJC) Record (KBJC)
Temperature  
Mean Temperature 38 °F -  
Max Temperature 54 °F 44 °F 64 °F (1999)
Min Temperature 21 °F 24 °F -2 °F (1990)
Degree Days  
Heating Degree Days 28    
Moisture  
Dew Point 21 °F    
Average Humidity 65    
Maximum Humidity 90    
Minimum Humidity 27    
Precipitation  
Precipitation 0.00 in - - ()
Sea Level Pressure  
Sea Level Pressure 30.00 in    
Wind  
Wind Speed 5 mph (NNE)    
Max Wind Speed 18 mph    
Max Gust Speed 23 mph    
Visibility 9 miles    
Events Snow    
Averages and records for this station are not official NWS values.
T = Trace of Precipitation, MM = Missing Value Source: NWS Daily Summary

Daily Weather History Graph

Daily Weather History Graph

Search for Another Location

Airport:

Trip Planner

Search our weather history database for the weather conditions in past years. The results will help you decide how hot, cold, wet, or windy it might be!

Date:

Astronomy

Dec. 28, 2013 Rise Set
Actual Time 7:21 AM MST 4:42 PM MST
Civil Twilight 6:50 AM MST 5:13 PM MST
Nautical Twilight 6:16 AM MST 5:47 PM MST
Astronomical Twilight 5:43 AM MST 6:20 PM MST
Moon 3:01 AM MST (12/28) 1:35 PM MST (12/28)
Length of Visible Light 10h 22m
Length of Day
9h 21m
Waning Crescent, 18% of the Moon is Illuminated
Dec 28
Waning Crescent
Jan 1
New
Jan 7
First Quarter
Jan 15
Full
Jan 23
Last Quarter

Hourly Weather History & Observations

Time (MST) Temp. Windchill Dew Point Humidity Pressure Visibility Wind Dir Wind Speed Gust Speed Precip Events Conditions
12:14 AM 24.3 °F 18.4 °F 20.1 °F 84% 30.03 in 10.0 mi SSW 4.6 mph - N/A   Clear
12:34 AM 24.3 °F - 20.1 °F 84% 30.02 in 10.0 mi Calm Calm - N/A   Clear
12:54 AM 25.0 °F - 20.1 °F 82% 30.01 in 10.0 mi Calm Calm - N/A   Clear
1:14 AM 23.7 °F 19.3 °F 19.4 °F 84% 30.00 in 10.0 mi SW 3.5 mph - N/A   Clear
1:34 AM 23.2 °F 18.7 °F 19.4 °F 85% 29.99 in 10.0 mi SSW 3.5 mph - N/A   Clear
1:54 AM 23.2 °F - 19.4 °F 85% 29.99 in 10.0 mi Calm Calm - N/A   Clear
2:14 AM 23.2 °F - 19.6 °F 86% 29.98 in 10.0 mi Calm Calm - N/A   Clear
2:34 AM 23.0 °F 18.4 °F 19.2 °F 85% 29.97 in 10.0 mi South 3.5 mph - N/A   Clear
2:54 AM 23.0 °F 18.4 °F 19.4 °F 86% 29.97 in 10.0 mi SSW 3.5 mph - N/A   Clear
3:14 AM 24.3 °F 19.9 °F 20.3 °F 85% 29.96 in 10.0 mi South 3.5 mph - N/A   Clear
3:34 AM 24.3 °F - 20.5 °F 85% 29.96 in 10.0 mi Calm Calm - N/A   Clear
3:54 AM 24.6 °F - 19.9 °F 82% 29.95 in 10.0 mi Calm Calm - N/A   Clear
4:14 AM 24.3 °F 17.3 °F 20.1 °F 84% 29.94 in 10.0 mi SSW 5.8 mph - N/A   Clear
4:34 AM 25.0 °F 20.7 °F 19.8 °F 81% 29.93 in 10.0 mi South 3.5 mph - N/A   Clear
4:54 AM 26.6 °F 20.0 °F 20.7 °F 78% 29.92 in 10.0 mi SSW 5.8 mph - N/A   Clear
5:14 AM 26.1 °F 21.9 °F 20.1 °F 78% 29.92 in 10.0 mi South 3.5 mph - N/A   Clear
5:34 AM 24.6 °F - 20.1 °F 83% 29.92 in 10.0 mi Calm Calm - N/A   Clear
5:54 AM 23.2 °F - 19.0 °F 84% 29.91 in 10.0 mi Calm Calm - N/A   Clear
6:14 AM 23.9 °F 15.8 °F 19.4 °F 83% 29.91 in 10.0 mi SSW 6.9 mph - N/A   Clear
6:34 AM 25.7 °F - 20.7 °F 81% 29.91 in 10.0 mi Calm Calm - N/A   Clear
6:54 AM 24.6 °F 18.8 °F 19.9 °F 82% 29.90 in 10.0 mi SSW 4.6 mph - N/A   Clear
7:14 AM 24.4 °F 16.5 °F 20.1 °F 84% 29.90 in 10.0 mi SSW 6.9 mph - N/A   Clear
7:34 AM 25.5 °F - 20.3 °F 81% 29.90 in 10.0 mi Calm Calm - N/A   Clear
7:54 AM 25.5 °F - 21.4 °F 84% 29.90 in 10.0 mi Calm Calm - N/A   Clear
8:14 AM 30.0 °F - 23.9 °F 78% 29.90 in 10.0 mi Calm Calm - N/A   Clear
8:34 AM 34.3 °F - 25.0 °F 69% 29.90 in 10.0 mi Calm Calm - N/A   Clear
8:54 AM 36.9 °F - 26.4 °F 66% 29.90 in 10.0 mi Calm Calm - N/A   Clear
9:14 AM 38.3 °F - 27.0 °F 64% 29.90 in 10.0 mi Calm Calm - N/A   Clear
9:34 AM 41.2 °F - 28.8 °F 61% 29.90 in 10.0 mi Calm Calm - N/A   Clear
9:54 AM 40.1 °F 36.1 °F 27.0 °F 59% 29.90 in 10.0 mi NNE 5.8 mph - N/A   Clear
10:14 AM 42.1 °F 40.2 °F 24.4 °F 50% 29.90 in 10.0 mi North 3.5 mph - N/A   Clear
10:34 AM 45.7 °F - 23.0 °F 41% 29.90 in 10.0 mi Calm Calm - N/A   Clear
10:54 AM 48.2 °F - 23.4 °F 38% 29.89 in 10.0 mi North 3.5 mph - N/A   Clear
11:14 AM 51.8 °F - 22.8 °F 32% 29.88 in 10.0 mi Calm Calm - N/A   Clear
11:34 AM 54.0 °F - 20.8 °F 27% 29.87 in 10.0 mi Calm Calm - N/A   Clear
11:54 AM 54.5 °F - 23.9 °F 31% 29.86 in 10.0 mi North 5.8 mph - N/A   Clear
12:14 PM 53.4 °F - 23.4 °F 31% 29.86 in 10.0 mi North 3.5 mph - N/A   Clear
12:34 PM 53.4 °F - 25.0 °F 33% 29.86 in 10.0 mi NNW 5.8 mph - N/A   Clear
12:54 PM 52.2 °F - 21.9 °F 31% 29.86 in 10.0 mi NW 8.1 mph - N/A   Clear
1:14 PM 52.0 °F - 23.0 °F 32% 29.88 in 10.0 mi NE 18.4 mph 21.9 mph N/A   Clear
1:34 PM 49.5 °F - 21.0 °F 33% 29.87 in 10.0 mi NNE 5.8 mph - N/A   Clear
1:54 PM 49.6 °F - 19.6 °F 31% 29.88 in 10.0 mi NE 6.9 mph - N/A   Scattered Clouds
2:14 PM 48.9 °F - 18.9 °F 30% 29.90 in 10.0 mi NE 18.4 mph - N/A   Scattered Clouds
2:34 PM 47.3 °F - 18.3 °F 32% 29.92 in 10.0 mi NE 15.0 mph - N/A   Mostly Cloudy
2:54 PM 45.7 °F 40.6 °F 17.6 °F 33% 29.93 in 10.0 mi NE 10.4 mph 20.7 mph N/A   Scattered Clouds
3:14 PM 45.0 °F 38.5 °F 19.0 °F 36% 29.95 in 10.0 mi NNE 13.8 mph 20.7 mph N/A   Scattered Clouds
3:34 PM 44.2 °F 39.2 °F 20.3 °F 39% 29.98 in 10.0 mi NNE 9.2 mph 18.4 mph N/A   Clear
3:54 PM 42.4 °F 35.7 °F 21.7 °F 44% 30.00 in 10.0 mi NNE 12.7 mph - N/A   Clear
4:14 PM 40.3 °F 33.4 °F 22.8 °F 50% 30.02 in 10.0 mi NNE 11.5 mph - N/A   Clear
4:34 PM 38.5 °F 32.1 °F 23.4 °F 55% 30.04 in 10.0 mi North 9.2 mph - N/A   Scattered Clouds
4:54 PM 37.4 °F 31.4 °F 23.7 °F 58% 30.05 in 10.0 mi NNE 8.1 mph - N/A   Scattered Clouds
5:14 PM 36.9 °F 31.4 °F 23.9 °F 59% 30.07 in 10.0 mi NNE 6.9 mph - N/A   Clear
5:34 PM 36.1 °F 27.7 °F 24.6 °F 63% 30.07 in 10.0 mi NNE 12.7 mph 17.3 mph N/A   Clear
5:54 PM 35.6 °F 29.9 °F 24.8 °F 65% 30.08 in 10.0 mi NNE 6.9 mph - N/A   Mostly Cloudy
6:14 PM 35.6 °F 29.9 °F 25.2 °F 66% 30.09 in 10.0 mi North 6.9 mph - N/A   Overcast
6:34 PM 35.4 °F 29.0 °F 25.2 °F 66% 30.09 in 10.0 mi North 8.1 mph - N/A   Overcast
6:54 PM 34.9 °F 27.1 °F 25.7 °F 69% 30.11 in 10.0 mi NNE 10.4 mph 16.1 mph N/A   Overcast
7:14 PM 34.0 °F 23.8 °F 25.5 °F 71% 30.11 in 10.0 mi North 16.1 mph - N/A   Overcast
7:34 PM 31.3 °F 20.7 °F 22.5 °F 70% 30.12 in 3.0 mi North 15.0 mph - N/A Snow Light Snow
7:54 PM 30.2 °F 19.3 °F 21.9 °F 71% 30.13 in 2.5 mi NNE 15.0 mph 21.9 mph N/A Snow Light Snow
8:14 PM 29.7 °F 20.1 °F 21.4 °F 71% 30.15 in 4.0 mi North 11.5 mph 19.6 mph N/A Snow Light Snow
8:34 PM 29.1 °F 18.4 °F 20.5 °F 70% 30.15 in 3.0 mi NNE 13.8 mph 23.0 mph N/A Snow Light Snow
8:54 PM 28.8 °F 18.4 °F 19.6 °F 69% 30.16 in 10.0 mi NNE 12.7 mph - N/A   Overcast
9:14 PM 28.4 °F 18.0 °F 19.0 °F 68% 30.17 in 10.0 mi NNE 12.7 mph 18.4 mph N/A   Overcast
9:34 PM 27.7 °F 18.2 °F 18.9 °F 69% 30.19 in 10.0 mi NE 10.4 mph 17.3 mph N/A Snow Light Snow
9:54 PM 25.2 °F 15.1 °F 17.1 °F 71% 30.20 in 5.0 mi NE 10.4 mph - N/A Snow Light Snow
10:14 PM 24.6 °F 16.7 °F 17.2 °F 74% 30.21 in 10.0 mi NE 6.9 mph - N/A Snow Light Snow
10:34 PM 24.4 °F 12.4 °F 18.1 °F 77% 30.22 in 4.0 mi North 13.8 mph - N/A Snow Light Snow
10:54 PM 23.0 °F 12.4 °F 19.4 °F 86% 30.23 in 2.5 mi North 10.4 mph - N/A Snow Light Snow
11:14 PM 22.3 °F 12.2 °F 18.9 °F 87% 30.23 in 2.0 mi NNE 9.2 mph - N/A Snow Light Snow
11:34 PM 21.9 °F 13.4 °F 18.9 °F 88% 30.23 in 2.0 mi North 6.9 mph - N/A Snow Light Snow
11:54 PM 21.7 °F 17.0 °F 19.2 °F 90% 30.23 in 2.5 mi North 3.5 mph - N/A Snow Light Snow